Theta_e
307 304 302 303 303 304 305 307 308 306 301 301 301 299 300 298 298 297 296 298 298 299 298 300 301 302 302 303 307 308 306 303 302 301 300 300 299 299 299 299 299 299 299 298
305 305 303 302 303 304 306 307 306 303 301 301 299 299 298 297 297 297 297 297 298 298 297 299 300 301 301 302 304 304 304 303 302 301 300 300 299 300 300 300 300 300 299 298
305 303 303 303 302 305 301 304 303 303 299 298 295 300 299 298 297 297 297 297 297 298 298 297 298 299 299 301 302 302 302 302 302 301 300 300 300 300 300 300 299 298 298 298
301 300 303 301 300 301 307 298 300 299 295 298 294 299 296 297 296 297 296 295 296 297 297 296 296 297 297 299 300 301 301 301 301 300 300 300 299 299 299 299 298 298 297 296
301 300 300 300 299 299 302 298 299 298 291 291 292 289 293 295 296 295 294 293 293 294 296 294 294 295 296 298 299 300 300 300 300 300 300 300 299 299 298 298 298 297 295 295
299 297 298 299 297 298 297 297 294 293 287 289 285 289 294 294 296 296 294 292 292 292 293 293 294 294 295 296 298 298 299 299 299 299 299 299 298 298 297 296 295 295 294 294
296 300 297 296 300 298 295 290 290 292 290 294 277 292 299 297 295 294 294 293 291 291 291 291 292 292 293 294 295 296 296 296 296 296 296 295 295 294 294 293 292 292 291 291
290 293 294 295 297 299 297 289 291 287 291 292 279 292 296 295 293 291 291 291 291 291 291 290 291 291 291 291 291 292 292 292 292 292 292 291 291 290 290 290 289 289 288 288
293 294 296 295 294 294 294 289 290 283 273 285 289 290 292 294 291 292 292 292 291 291 290 290 291 290 290 289 289 289 289 289 289 289 289 289 289 288 288 288 288 288 288 288
295 292 289 296 294 292 292 291 291 286 288 285 288 280 295 290 288 287 292 291 290 290 290 289 290 290 289 288 288 288 288 288 288 288 288 287 287 287 287 287 287 287 287 287
289 288 290 294 288 288 290 289 288 288 290 288 288 293 287 286 281 284 285 289 286 286 288 288 289 290 290 290 289 288 288 287 287 287 287 287 286 286 286 286 286 286 286 286
296 292 289 290 293 293 293 291 293 292 287 287 290 293 285 280 275 274 284 284 285 284 287 286 289 289 290 290 290 289 287 287 286 286 286 286 286 286 286 286 286 285 285 285
296 288 287 293 291 290 291 293 291 287 291 289 290 295 282 275 279 280 282 285 283 284 282 282 285 287 289 289 289 287 286 286 286 286 285 285 285 285 286 286 286 285 285 285
296 294 289 293 291 285 290 292 293 289 286 294 291 295 294 293 284 285 284 282 283 281 280 280 279 283 287 288 287 286 286 286 286 286 285 285 285 284 284 284 284 284 284 284
293 289 291 289 285 284 288 292 290 290 293 291 295 285 292 293 293 289 277 279 282 282 279 278 278 280 285 286 286 286 286 286 286 285 285 285 285 284 284 284 284 283 283 283
292 286 284 286 288 291 291 292 292 290 292 287 292 293 291 287 271 279 283 283 283 283 281 278 277 281 283 285 286 286 286 286 286 286 285 285 284 285 285 284 284 283 283 283
288 282 281 285 282 282 287 285 287 285 281 286 288 288 272 287 288 281 284 280 282 282 282 278 277 281 284 285 286 286 287 286 286 286 286 285 285 285 285 284 283 283 283 282
286 279 278 284 277 285 290 286 286 286 288 283 284 287 286 285 284 280 281 280 283 283 280 277 280 283 286 286 286 286 286 286 286 286 286 285 285 284 284 284 284 283 282 282
291 287 283 283 278 286 291 289 290 290 290 289 288 287 286 285 284 287 287 282 283 281 282 285 286 285 286 286 286 286 286 286 285 285 285 285 285 284 284 284 283 282 282 282
288 293 286 274 281 287 289 290 289 289 287 288 289 288 287 287 288 288 288 284 285 285 285 286 286 286 286 287 286 285 285 285 284 284 283 283 283 283 283 283 282 281 281 281
288 292 290 287 287 286 288 287 287 287 289 287 286 286 286 286 286 287 287 286 285 286 286 286 286 286 287 286 285 284 284 284 283 283 282 282 282 282 282 282 281 281 281 280
286 287 283 284 284 289 287 288 289 287 286 286 286 285 285 285 285 285 285 285 286 284 285 286 286 286 286 286 284 284 283 284 283 282 282 281 281 281 281 281 281 280 280 279
286 287 283 287 290 287 286 286 286 286 285 284 283 283 283 283 283 284 284 285 285 285 285 285 285 285 286 285 284 283 283 283 282 281 281 281 281 281 280 280 279 279 279 278
285 283 285 286 285 286 285 285 284 284 283 283 282 282 282 282 282 283 283 283 284 285 285 285 284 284 284 285 285 283 283 282 281 281 281 280 280 280 279 278 278 278 278 278
285 281 280 283 283 283 284 283 283 282 281 281 281 281 281 281 281 282 282 282 283 284 285 285 283 284 284 285 285 283 282 282 281 280 280 280 279 279 279 278 278 277 278 278
281 285 285 286 283 284 284 283 281 281 280 280 280 280 281 280 280 280 281 281 282 282 283 283 282 282 284 284 284 283 282 281 280 280 279 279 278 277 277 277 277 277 278 279
Wind_Speed
4 6 3 2 2 3 1 1 3 2 3 4 4 6 10 6 4 6 7 6 4 3 4 8 11 11 10 9 12 17 21 19 17 15 13 12 12 10 9 8 7 6 6 7
6 4 4 3 4 3 5 1 3 4 4 2 5 12 11 7 6 6 7 6 5 3 5 7 11 11 10 8 9 13 19 19 16 14 12 8 5 7 8 7 5 6 6 7
5 2 5 3 5 4 3 3 4 3 7 2 8 7 5 4 3 3 2 2 1 2 5 6 10 11 11 9 4 9 14 15 13 11 9 7 6 5 3 2 3 4 5 7
5 5 4 5 5 4 1 3 2 3 5 3 5 5 7 5 7 3 5 4 4 3 2 3 7 9 12 12 4 4 10 11 10 9 8 6 5 4 3 4 4 4 6 7
3 5 6 7 1 1 1 4 3 3 3 4 6 3 8 5 6 7 9 8 7 6 3 1 4 5 7 8 6 6 8 8 7 7 6 5 5 5 5 6 6 7 8 9
2 1 3 1 1 2 2 1 5 3 3 3 3 4 6 4 5 5 5 9 9 7 5 2 1 0 2 5 8 8 8 8 7 5 3 2 3 3 4 6 8 9 11 11
5 3 3 4 2 2 5 6 4 5 4 5 2 2 11 6 7 5 9 8 7 6 6 5 4 2 2 4 6 7 7 8 5 4 2 1 1 2 3 5 7 9 10 11
4 6 5 6 3 1 4 5 4 5 2 5 2 6 6 4 5 7 8 7 6 6 5 5 5 4 4 4 5 6 6 7 5 4 3 2 2 3 4 6 8 9 11 13
3 4 1 3 1 2 2 2 3 6 1 3 3 8 10 2 6 5 6 4 6 6 5 6 7 7 6 5 6 6 6 5 4 3 2 1 2 4 5 7 9 11 12 14
2 3 2 3 2 4 4 2 3 3 2 5 5 6 6 5 6 6 6 7 7 6 7 7 10 11 9 6 3 2 2 3 2 1 1 2 4 6 7 9 10 12 13 14
4 4 4 2 2 5 2 2 3 3 3 4 3 6 7 7 4 6 8 8 8 8 8 7 13 13 11 9 7 4 4 3 3 3 4 5 6 7 9 10 11 13 14 15
0 4 2 7 1 2 3 5 5 4 6 3 1 8 1 6 5 4 9 9 7 9 10 9 15 14 12 12 10 9 8 7 5 6 6 7 8 10 11 12 13 14 15 16
3 2 4 8 3 4 3 4 3 3 1 7 2 7 3 3 6 6 8 9 8 9 9 8 13 16 16 15 13 12 10 8 7 8 8 9 10 11 12 14 15 16 17 17
1 2 7 7 7 3 2 3 4 5 2 7 8 25 14 18 7 11 10 9 10 9 8 7 9 19 21 19 18 15 13 10 9 9 9 11 11 11 12 13 15 16 17 18
3 4 1 4 6 2 5 12 6 10 12 5 28 6 20 19 15 15 7 10 10 12 8 9 8 15 21 20 20 18 14 9 7 9 9 11 12 12 12 15 17 18 20 21
3 2 2 5 5 1 5 15 12 12 14 11 19 23 18 10 3 7 10 9 11 12 11 8 9 18 19 21 22 20 16 10 9 11 13 13 14 14 15 18 20 21 23 23
2 3 3 6 4 6 8 7 5 3 4 6 5 9 3 13 14 7 9 7 11 12 11 8 9 20 21 19 20 21 20 16 15 14 15 17 18 19 19 20 23 24 25 25
5 4 2 4 4 1 6 3 5 8 8 8 10 12 8 11 10 9 10 11 14 12 9 8 17 18 17 15 12 10 11 12 14 17 18 20 22 24 22 23 24 26 27 27
2 4 1 1 2 7 7 3 3 3 6 3 4 7 7 7 7 7 7 5 14 10 16 17 12 16 15 12 11 14 16 15 15 18 21 22 23 24 24 24 26 27 28 29
2 2 3 3 2 5 5 1 0 2 4 4 3 10 14 13 12 14 15 7 14 19 19 15 10 10 11 15 16 17 18 16 18 20 21 20 20 22 23 25 27 29 29 31
4 2 7 4 4 9 8 4 2 4 6 10 9 11 11 6 8 18 19 21 21 21 18 16 15 17 18 18 17 19 19 19 20 19 20 21 21 23 25 28 30 31 30 31
6 6 4 2 0 8 2 1 3 4 7 9 11 9 14 16 17 17 18 18 24 21 26 26 23 23 23 19 18 21 22 21 20 21 22 23 24 25 27 29 31 32 31 31
3 6 4 9 7 1 5 4 6 6 7 7 9 14 13 15 17 18 16 17 24 27 29 30 27 28 26 20 20 22 27 22 21 22 24 25 26 27 29 29 30 27 26 25
4 3 3 3 4 5 6 5 7 5 8 12 10 12 13 14 17 18 16 17 23 28 27 27 24 25 30 30 22 26 25 21 21 23 25 27 28 31 30 29 27 24 23 21
4 2 3 5 4 6 5 10 10 12 10 11 17 13 13 13 16 16 16 19 27 29 31 26 23 24 31 33 25 26 24 19 21 23 27 30 31 32 32 30 28 26 29 24
1 2 1 0 5 3 7 8 8 8 12 13 14 14 22 21 14 22 19 24 23 29 32 29 27 24 33 33 28 28 23 18 19 23 27 29 28 28 26 24 30 29 28 30
Wind_Direction
4 67 61 23 345 270 279 295 298 318 29 339 267 281 273 270 255 233 225 225 229 281 328 349 351 340 317 279 245 235 216 212 215 215 218 229 238 244 254 264 272 286 303 313
24 60 343 298 18 68 38 357 307 287 23 353 354 283 257 237 236 210 218 231 258 307 341 353 1 1 353 317 247 228 213 210 215 220 226 233 246 249 259 264 276 284 296 304
102 343 314 73 32 32 44 11 352 288 329 70 330 289 305 267 244 226 219 217 286 321 338 345 355 1 3 358 283 224 210 210 212 217 227 234 251 267 280 288 270 293 304 307
74 321 23 52 67 15 6 349 317 341 32 274 16 281 298 329 297 274 244 247 256 274 331 352 351 360 6 7 11 199 196 197 200 208 219 235 261 278 289 297 299 307 319 324
274 6 20 55 319 349 244 33 38 65 83 37 351 61 274 359 311 265 233 229 230 234 226 357 356 357 14 28 58 125 157 165 179 195 215 236 256 275 291 303 305 308 313 317
90 43 47 9 356 22 4 43 37 57 94 16 231 113 285 254 221 274 250 215 213 209 201 191 235 339 63 73 87 109 131 132 144 159 174 216 248 274 287 298 309 316 320 322
353 15 355 26 339 4 53 47 339 353 7 222 348 35 243 258 244 250 285 247 214 205 203 213 205 196 98 102 106 113 115 108 112 117 115 91 353 313 319 323 328 329 331 332
93 334 14 354 49 334 36 125 149 238 265 277 353 242 249 224 325 287 285 267 192 215 229 234 214 191 157 128 118 120 120 118 120 115 99 53 358 341 331 326 324 323 321 320
70 304 36 41 356 74 275 36 144 98 100 35 274 294 298 318 303 301 289 264 235 241 242 237 219 206 188 172 158 149 144 137 138 139 137 141 318 316 323 323 323 321 319 318
170 352 282 286 132 33 140 155 30 9 334 308 292 278 239 327 312 313 288 250 256 261 251 244 232 215 204 197 189 193 191 182 182 210 294 321 318 313 315 314 315 316 317 318
134 97 286 28 190 186 20 339 41 119 141 184 281 256 214 220 232 300 292 268 258 260 253 239 234 230 225 227 233 246 244 244 261 289 304 311 313 315 316 319 320 319 319 320
18 129 265 229 335 244 221 217 166 121 270 226 174 271 91 242 235 232 290 284 260 239 246 240 236 230 230 234 241 251 253 254 261 280 293 303 312 314 312 313 313 314 315 316
177 322 356 338 354 346 244 212 134 117 82 208 129 264 252 262 298 264 265 289 279 265 257 238 235 235 237 238 237 236 242 253 268 279 292 303 311 312 311 310 309 310 309 308
114 188 179 206 215 122 260 249 184 136 157 278 213 275 295 295 319 305 295 266 280 276 263 242 232 232 233 233 228 229 233 249 265 274 285 294 305 305 309 308 307 308 307 304
124 212 262 257 239 177 241 259 201 198 236 217 277 256 280 292 305 296 289 288 296 293 275 247 238 233 233 232 230 231 232 243 258 262 271 288 296 298 308 312 310 309 307 307
25 274 76 299 346 277 266 265 253 239 255 258 268 279 283 284 352 299 289 299 300 296 283 260 235 240 241 235 234 233 233 245 258 264 274 286 287 295 307 308 305 305 304 304
118 122 61 264 320 327 302 233 207 223 224 179 231 248 334 320 321 294 295 284 281 280 283 273 242 236 240 244 246 247 252 266 264 270 277 278 278 286 300 305 303 303 306 308
139 98 111 264 7 78 245 189 203 200 247 224 283 286 301 275 274 272 263 254 276 271 274 269 260 242 241 245 244 255 257 269 277 280 276 278 277 280 290 296 298 300 303 305
182 116 338 204 223 299 284 159 177 190 280 13 243 296 299 296 286 289 273 232 262 257 263 274 276 249 260 249 261 267 262 264 271 277 279 285 289 288 288 289 294 298 298 299
90 357 134 65 141 260 244 91 190 153 276 24 284 337 339 342 324 311 325 306 294 282 268 264 259 244 250 263 271 267 263 264 271 280 290 295 293 288 285 288 292 295 295 294
116 183 225 197 262 281 257 267 302 78 316 338 341 332 321 302 277 296 305 305 288 285 277 258 243 251 259 271 269 261 263 264 276 289 293 293 292 290 288 288 289 291 292 293
170 163 209 97 92 282 177 49 112 322 334 329 324 317 314 308 307 305 302 301 296 277 274 266 255 252 261 265 262 260 261 271 281 288 289 291 292 290 289 289 291 293 293 292
282 198 184 188 216 22 34 15 347 343 324 334 330 330 325 315 313 311 307 305 298 290 282 274 255 260 265 258 255 258 265 274 284 289 292 294 298 296 295 291 290 285 285 276
244 168 221 50 321 354 25 18 16 344 335 324 320 315 311 308 308 308 312 308 306 298 291 281 267 261 267 266 262 260 270 275 284 288 292 300 300 301 300 297 289 276 271 267
212 77 196 263 348 334 34 12 340 328 319 314 310 297 292 297 299 304 299 309 308 304 299 289 269 266 264 271 270 267 268 274 280 289 297 301 301 298 297 294 288 278 278 267
214 270 173 325 325 293 308 305 293 293 303 304 304 301 304 307 301 298 297 302 304 306 304 298 287 275 280 277 275 273 273 275 281 288 294 296 297 294 290 287 289 285 275 277